Tracking 20719 objects as of 26-May-2020
HD Live streaming from Space Station
objects crossing your sky now

SUPERBIRD C

Track SUPERBIRD C now!
SUPERBIRD C is classified as:


NORAD ID: 24880
Int'l Code: 1997-036A
Perigee: 36,077.3 km
Apogee: 36,190.8 km
Inclination: 8.4 °
Period: 1,453.5 minutes
Semi major axis: 42505 km
RCS: 12.5892 m2 (large)
Launch date: July 28, 1997
Source: Japan (JPN)
Launch site: AIR FORCE EASTERN TEST RANGE (AFETR)

14 Ku-band; Asia-Pacific region; voice and video communications.
aabbcc
Your satellite tracking list
Your tracking list is empty




NASA's NSSDC Master Catalog

Two Line Element Set (TLE):
1 24880U 97036A   20145.77513270  .00000058  00000-0  00000+0 0  9993
2 24880   8.3979  47.9475 0013352 323.1072  36.6646  0.99070061 83349
Source of the keplerian elements: AFSPC